[Iaude] MPEC B125: 2017 BM31 [a=1.78,e=0.49,i=6.6,H=20.76]
    mpec at marsden.cfa.harvard.edu 
    mpec at marsden.cfa.harvard.edu
       
    Wed Jan 24 09:16:21 EST 2024
    
    
  
M.P.E.C. 2024-B125                             Issued 2024 January 24, 14:14 UT
     The Minor Planet Electronic Circulars contain information on unusual
         minor planets, routine data on comets and natural satellites,
         and occasional editorial announcements.  They are published
    on behalf of Division F of the International Astronomical Union by the
          Minor Planet Center, Smithsonian Astrophysical Observatory,
                          Cambridge, MA 02138, U.S.A.
			  
             Prepared using the Tamkin Foundation Computer Network
                              MPC at CFA.HARVARD.EDU
            URL https://www.minorplanetcenter.net/    ISSN 1523-6714
                                   2017 BM31                                    
                           Revision to MPEC 2017-B135                           
Additional Observations:
     K17B31M &C2015 10 08.24540201 48 23.71 +00 02 44.2                WEB125W84
     K17B31M 1C2018 12 07.46358204 27 39.52 +11 59 42.3                WEB125T09
     K17B31M 1C2018 12 07.56471904 27 30.57 +11 59 29.7                WEB125T09
     K17B31M 1C2018 12 08.44808004 26 14.17 +11 57 45.3                WEB125T09
     K17B31M 1C2018 12 08.52825104 26 07.10 +11 57 35.6                WEB125T09
     K17B31M  C2022 09 23.41492500 55 49.960-04 49 01.86         22.81GVEB125F52
     K17B31M  C2022 09 23.43688000 55 48.015-04 49 16.88         22.99GVEB125F52
     K17B31M  C2022 09 23.50640200 55 41.792-04 50 03.46         21.80GVEB125F52
     K17B31M  C2022 09 23.50720500 55 41.727-04 50 03.95         23.22GVEB125F52
     K17B31M  C2022 09 27.40910100 50 03.694-05 32 32.99         22.02GVEB125F51
     K17B31M  C2022 09 27.41987000 50 02.736-05 32 39.94         22.92GVEB125F51
     K17B31M  C2022 09 27.43080800 50 01.796-05 32 46.92         22.62GVEB125F51
     K17B31M  C2022 09 27.44151800 50 00.811-05 32 53.62         22.96GVEB125F51
Observer details:
F51 Pan-STARRS 1, Haleakala.  Observers J. Herman, T. Lowe, P. Minguez, A.
    Schultz, I. Smith.  Measurers K. Chambers, T. de Boer, J. Fairlamb, H.
    Gao, M. Huber, C.-C. Lin, E. Magnier, Y. Ramanjooloo, R. Wainscoat, R.
    Weryk.  1.8-m Ritchey-Chretien + CCD.
F52 Pan-STARRS 2, Haleakala.  Observers J. Herman, T. Lowe, P. Minguez, A.
    Schultz, I. Smith.  Measurers K. Chambers, T. de Boer, J. Fairlamb, H.
    Gao, M. Huber, C.-C. Lin, E. Magnier, Y. Ramanjooloo, R. Wainscoat, R.
    Weryk.  1.8-m Ritchey-Chretien + CCD.
T09 Subaru Telescope, Maunakea.  Observer .  Measurer S. Deen.  8.3-m Subaru
    Telescope + CCD.
W84 Cerro Tololo-DECam.  Observers S. S. Tie, T. Abbott, C. Furlanetto.
    Measurer S. Deen.  4.0-m reflector + CCD.
First and last observations above in comparison with prediction:
Residuals in seconds of arc, reference and Delta-T
151008 W84  2.1+  0.6+    220927 F51  8.2+  3.6+    MPO782337   -0.01 days
Orbital elements:
2017 BM31                                                Earth MOID = 0.0648 AU
Epoch 2023 Sept. 13.0 TT = JDT 2460200.5                Veres                   
M 232.84061              (2000.0)            P               Q                  
n   0.41402751     Peri.   96.09955     -0.65481812     +0.75102687             
a   1.7828573      Node   132.62496     -0.73094767     -0.60081884             
e   0.4933337      Incl.    6.60909     -0.19216853     -0.27381630             
P   2.38           H   20.76          G   0.15           U   0                  
Residuals in seconds of arc
151008 W84  0.1+  0.2-    170710 H21  0.1-  0.0     170716 654  0.1+  0.0
170127 F51  0.0   0.0     170710 H21  0.1-  0.0     170716 654  0.1+  0.0
170127 F51  0.0   0.0     170710 H21  0.2-  0.0     170716 654  0.1+  0.1-
170127 F51  0.0   0.0     170710 H21  0.1-  0.2-    170716 160  0.1+  0.1+
170128 926  0.0   0.1+    170710 H21  0.1-  0.2-    170716 160  0.1+  0.1-
170128 926  0.0   0.6-    170710 H21  0.0   0.1-    170716 160  0.0   0.1-
170128 926  0.2-  0.6-    170710 H21  0.0   0.0     170717 H21  0.0   0.5+
170128 291  0.3-  0.1-    170710 H21  0.0   0.0     170717 H21  0.2-  0.7+
170128 291  0.0   0.0     170710 H21  0.0   0.1-    170717 H21  0.1-  0.4+
170128 291  0.7-  0.1+    170710 H21  0.1-  0.1-    170717 H21  0.4-  0.9+
170128 568  0.0   0.0     170710 K14  0.1+  0.3-    170717 H21  0.1+  0.5+
170128 568  0.0   0.0     170710 K14  0.4+  0.0     170717 H21  0.1+  0.3+
170128 568  0.0   0.0     170710 K14  0.6+  0.1+    170717 H21  0.1+  0.4+
170128 K88  0.7+  0.0     170710 K14  0.5+  0.2-    170717 654  0.3+  0.1-
170128 K88  0.5+  0.3+    170710 K14  0.5+  0.3-    170717 654  0.2+  0.1-
170129 I52  0.2-  0.6+    170710 K14  0.2+  0.1-    170717 L04  0.1-  0.3+
170129 I52  0.7-  0.7+    170710 K14  0.1+  0.0     170717 L04  0.1+  0.1+
170129 I52  0.7-  0.3-    170710 K14  0.6+  0.1-    170717 L04  0.2+  0.0
170129 I52  0.5-  0.1+    170710 K14  0.0   0.3+    170717 160  0.0   0.1+
170129 I52  0.4-  0.6-    170710 K14  0.1+  0.1+    170717 160  0.1+  0.0
170129 I52  0.5-  0.2-    170710 118  1.4+  1.2-    170717 160  0.5+  0.1-
170129 I52  0.9-  0.2-    170710 118  1.1+  1.6-    170717 C23  0.2+  0.1-
170129 691  0.4+  0.4-    170710 118  0.2+  1.6-    170717 C23  0.2+  0.1-
170129 691 (1.3+  0.6-)   170710 118  1.0+  1.7-    170717 C23  0.1+  0.1+
170129 691  0.9-  0.3-    170710 118  2.1+  0.6-    170718 H45  0.0   0.1-
170130 691  0.3-  0.2-    170710 118  0.5+  1.6-    170718 H45  0.4+  0.3-
170130 691  0.7-  0.5+    170710 118  1.0+  2.3-    170718 H45  0.1+  0.2-
170201 I52  0.0   0.3+    170710 118  2.3+  1.9-    170718 H45  0.2-  0.1+
170201 I52  0.2+  0.1-    170710 118  0.5+  1.6-    170718 H45  0.2+  0.1-
170201 I52  0.1+  0.3+    170710 118  1.0+  1.6-    170718 H45  0.1+  0.1+
170201 I52  0.3-  0.3-    170710 118  0.7+  1.9-    170718 H45  0.1+  0.1-
170202 691 (1.1+  0.7-)   170710 118  1.3+  1.7-    170718 H45  0.0   0.1-
170202 691  0.2-  0.5-    170710 118  1.7+  1.5-    170718 H21  0.1+  0.0
170202 691  0.1-  0.1-    170710 118  0.3+  0.4-    170718 H21  0.1+  0.1+
170224 705  0.2+  0.4+    170710 118  0.0   2.3-    170718 H21  0.1-  0.0
170224 705  0.0   0.0     170710 118  1.1+  1.0-    170718 H21  0.2+  0.3+
170224 705  0.8-  0.8-    170710 118  1.3+  1.4-    170718 H21  0.2+  0.2+
170224 691  0.1+  0.1+    170710 118  0.4-  3.0-    170718 H21  0.3+  0.2+
170224 691  0.4+  0.1+    170710 118  0.7+  0.7-    170718 160  0.2-  0.3+
170224 691  0.7+  0.0     170711 K14  0.3+  0.3+    170718 160  0.0   0.2+
170329 T12  0.0   0.0     170711 K14  0.0   0.1-    170718 160  0.2-  0.2+
170329 T12  0.0   0.0     170711 K14  0.4+  0.1-    170719 160  0.2-  0.1-
170331 T12  0.0   0.0     170711 K14  0.2+  0.1-    170719 160  0.2+  0.1-
170331 T12  0.0   0.0     170711 K14  0.4-  0.3+    170720 H45  0.1-  0.0
170423 291  0.3+  0.3-    170711 A53  0.0   0.1-    170720 H45  0.2-  0.0
170423 291  0.3+  0.1+    170711 C77  0.3+  0.2-    170720 H45  0.2+  0.1+
170423 291  0.4+  0.1-    170711 C77  0.2+  0.1-    170720 H45  0.3+  0.3-
170619 I52 (2.1+  0.3-)   170711 A53  0.0   0.1-    170720 H45  0.2-  0.1+
170619 I52 (1.3+  0.2-)   170711 C77  0.2+  0.1-    170720 H45  0.1-  0.1+
170619 I52 (1.2+  0.0 )   170711 A53  0.0   0.2-    170720 H45  0.4-  0.3+
170619 I52  0.6+  0.3-    170711 C77  0.0   0.1-    170720 H45  0.0   0.2-
170625 204  0.0   0.1-    170711 A53  0.2-  0.4-    170723 H45  0.0   0.1+
170625 204  0.1+  0.1-    170711 A53  0.3-  0.1-    170723 H45  0.1-  0.2-
170625 204  0.2+  0.1-    170712 H21  0.1-  0.1+    170723 H45  0.5+  0.2+
170627 H21  0.0   0.2-    170712 H21  0.3-  0.1+    170723 H45  0.1-  0.1+
170627 H21  0.1+  0.1+    170712 H21  0.0   0.0     170723 H45  0.6-  0.1+
170627 H21  0.1+  0.2+    170712 H21  0.1-  0.2-    170723 H45  0.3-  0.4+
170628 G96  0.3+  0.1+    170712 H21  0.3-  0.0     170725 H21  0.1-  0.1+
170628 G96  0.2+  0.1+    170712 H21  0.0   0.0     170725 H21  0.4-  0.2-
170628 G96  0.2+  0.2+    170712 H21  0.2-  0.2-    170725 H21  0.1-  0.0
170628 G96  0.3+  0.1+    170712 H21  0.1+  0.1+    170725 H21  0.2+  0.2+
170629 T08  0.4-  0.4-    170712 H21  0.1-  0.0     170725 H21  0.2-  0.1+
170629 T08  0.4+  0.2-    170712 H21  0.1+  0.0     170725 H21  0.1+  0.2+
170629 T08  0.2-  0.2+    170712 H21  0.0   0.0     170725 H21  0.1+  0.2+
170629 T08  0.3+  0.1+    170712 H21  0.0   0.0     170725 H45  0.0   0.1-
170630 703  0.1+  0.1+    170712 H21  0.1-  0.1+    170725 H45  0.1-  0.2-
170630 703  0.2-  0.1+    170712 H21  0.1-  0.0     170725 H45  0.2-  0.0
170630 703  0.0   0.5+    170712 H21  0.0   0.1+    170725 H45  0.0   0.1+
170630 703  0.0   0.2+    170712 H21  0.0   0.1-    170725 H45  0.6-  0.5-
170702 H21  0.1-  0.1-    170712 H21  0.0   0.1+    170725 H45  0.5-  0.2-
170702 H21  0.1-  0.1-    170712 H21  0.3-  0.0     170725 T08  0.4-  0.0
170702 H21  0.2-  0.1-    170712 H21  0.2-  0.0     170725 T08  1.2-  0.5+
170703 C51 (0.6-  0.3-)   170712 H21  0.2-  0.1-    170725 T08  0.2-  0.4+
170703 C51  0.2-  0.4-    170712 H21  0.1-  0.0     170727 H45(14.2-  0.2-)
170703 T08  0.2-  0.5-    170712 654  0.0   0.1-    170727 H45  0.2+  0.5-
170703 T08  0.6-  0.3+    170712 654  0.1+  0.0     170727 H45  0.0   0.2-
170703 T08  0.5-  0.6+    170712 654  0.1+  0.1-    170727 H45  0.1-  0.1-
170703 T08  0.5-  0.2-    170712 654  0.1+  0.0     170727 H45  0.4+  0.1+
170703 C51  0.7-  0.0     170712 K14  0.9+  0.4+    170727 H45  0.3+  0.3-
170703 C51  0.3-  0.1+    170712 K14  1.6+  0.3+    170728 C23  0.1+  0.6-
170703 Z80  0.1-  0.2-    170712 107  0.0   0.4-    170728 C23  0.3-  0.7-
170703 Z80  0.1+  0.5-    170712 107  0.4-  0.5-    170728 C23  0.3+  0.9+
170703 Z80  0.1-  0.1+    170712 K14  0.4+  0.4+    170729 654  0.0   0.0
170703 Z80  0.1+  0.5+    170712 107  0.5-  0.3+    170729 654  0.1-  0.1-
mailing list